Regional Weather Roundup
Issued by NWS

Home | Current Version | Previous Version | Text Only | Print | Product List | Glossary Off
Versions: 1 2 3 4 5 6 7 8 9 10 11 12 13 14 15 16 17 18 19 20 21 22 23 24 25 26 27 28 29 30 31 32 33 34 35 36 37 38 39 40 41 42 43 44 45 46 47

000
ASUS45 KSLC 020010
RWRUT

UTAH REGIONAL WEATHER ROUNDUP
NATIONAL WEATHER SERVICE SALT LAKE CITY UT
600 PM MDT TUE SEP 01 2015

UTZ001>011-023>025-020100-

NORTHERN UTAH

CITY           SKY/WX    TMP DP  RH WIND       PRES   REMARKS
BRIGHAM CITY   SUNNY     90  32  12 CALM      29.90F
HILL AFB       SUNNY     87  45  22 N3        29.94F
LOGAN          SUNNY     89  37  16 SW8       29.91F
OGDEN          SUNNY     91  41  17 N5        29.91F
PROVO AIRPORT  NOT AVBL
SALT LAKE CITY PTSUNNY   90  37  15 S13G24    29.87F
VERNAL         CLOUDY    77  44  30 S14       30.09S
WENDOVER       SUNNY     90  37  15 E13       29.85F
HEBER CITY     MOSUNNY   86  32  14 W9G17     30.02F
WEST JORDAN    SUNNY     90  41  18 SE17      29.92F

$$

UTZ012>022-026-027-020100-

SOUTHERN/CENTRAL UTAH

CITY           SKY/WX    TMP DP  RH WIND       PRES   REMARKS
BLANDING       PTSUNNY   83  44  25 SW7       30.20S
BRYCE CANYON   MOSUNNY   76  36  23 SW13      30.25F
CEDAR CITY     SUNNY     83  37  19 SW14      30.07F
DELTA          SUNNY     91  30  11 SW13      29.95F
HANKSVILLE     MOSUNNY   88  43  20 SE16      30.01R
MILFORD        SUNNY     89  31  12 SW25      30.00F
MOAB/CYNLANDS  MOSUNNY   85  47  26 NW18G24   29.99S
PRICE          PTSUNNY   76  46  34 CALM      30.11S
ST GEORGE      PTCLDY    95  46  18 W9        29.88F HX  91
KANAB          SUNNY     81  52  36 S6        30.10F

$$

REGIONAL REPORTS     COLORADO/ARIZONA

CITY           SKY/WX    TMP DP  RH WIND       PRES   REMARKS
CRAIG, CO      CLOUDY    72  38  29 S32G49    30.15S
GRAND JUNCTION MOSUNNY   84  47  27 W5        30.01F
RIFLE          PTSUNNY   78  44  29 N21       30.10R
MONTROSE       MOSUNNY   84  45  25 N5        30.11F
CORTEZ         SUNNY     82  43  25 SW12      30.13S
PAGE, AZ       SUNNY     88  47  24 N5        30.00F
GRAND CANYON   PTSUNNY   76  47  35 SW7       30.21R
KINGMAN        MOSUNNY   93  43  17 SW18G29   29.96F
FLAGSTAFF      MOSUNNY   72  51  47 SW10      30.26F

$$

REGIONAL REPORTS    NEVADA/IDAHO/WYOMING

CITY           SKY/WX    TMP DP  RH WIND       PRES   REMARKS
LAS VEGAS, NV  PTSUNNY   98  47  17 S9G18     29.78F HX  94
ELY            MOSUNNY   83  28  13 SW15G23   30.05F
ELKO           SUNNY     90  26  10 SW9       29.90F
POCATELLO, ID  SUNNY     87  28  12 NW7       29.90F
BURLEY         MOSUNNY   86  39  19 N5        29.84F
EVANSTON, WY   PTSUNNY   78  38  23 W12       30.13F
ROCK SPRINGS   CLOUDY    67  54  63 W6        30.16R
KEMMERER       CLOUDY    75  32  20 SW16G25   30.15S

$$



USA.gov is the U.S. government's official web portal to all federal, state and local government web resources and services.